Вернуться в каталог

OPS 7484

АктивенНавигацияGEO
NORAD 11397·PAYLOAD·🇺🇸 United States

Запущен Jun 10, 1979 с Cape Canaveral Space Force Station

Loading…

TLE

СвежийSource: Space-Track

Эпоха: Sep 14, 2026, 05:21 UTC

1 11397U 79053A   26257.22359741 -.00000086  00000-0  00000-0 0  9995
2 11397   7.0154 296.2486 0010743 301.0468 220.7810  0.98748142 26869

Отслеживайте OPS 7484 в реальном времени с AllMySat

Download on the App Store